Location: Newark
(42.7133°N, 87.7910°W)
Time: 15:41:05
(UTC+00:00)

Tiros 1 - Pass Details

Date: 22 September 2019
Orbit: 630 x 664 km, 48.4° (Epoch: 13 October)

Event Time Altitude Azimuth Distance (km) Brightness Sun altitude
Rises 19:50:49 0° 269° (W) 2,967 11.0 38.8°
Reaches altitude 10° 19:53:16 10° 276° (W) 2,051 10.3 38.5°
Maximum altitude 19:57:49 46° 350° (N) 871 8.0 38.0°
Drops below altitude 10° 20:02:19 10° 63° (ENE) 2,032 9.3 37.4°
Sets 20:04:43 0° 70° (ENE) 2,936 10.1 37.0°
